302  
ASUS42 KFFC 200110  
RWRGA  
WEATHER ROUNDUP FOR GEORGIA  
NATIONAL WEATHER SERVICE PEACHTREE CITY GA  
900 PM EDT MON APR 19 2021  
 
NOTE: "FAIR" INDICATES FEW OR NO CLOUDS BELOW 12,000 FEET WITH NO  
SIGNIFICANT WEATHER AND/OR S TO VISIBILITY
.  
 
* = USE WITH CAUTION. THE STATIONS MARKED WITH AN ASTERISK MAY NOT  
REPORT WEATHER SUCH AS PRECIPITATION, FOG, OR THUNDER AND ARE NOT  
QUALITY CONTROLLED BY NWS.  
 
THE REMARK "TC" DENOTES TEMPERATURE READING IN DEGREES CELSIUS.  
 
GAZ001>058-200200-  
NORTH GEORGIA  
 
CITY SKY/WX TMP DP RH WIND PRES REMARKS
 
ATLANTA PTCLDY 65 39 38 N8 29.96R  
ATHENS CLEAR 63 41 44 W3 29.94R  
CHAMBLEE CLEAR 58 41 53 N5 29.96R  
PEACHTREE CITY CLEAR 58 46 64 CALM 29.96R  
ROME PTCLDY 60 44 55 CALM 29.96R  
WEST ATLANTA CLEAR 60 42 51 N3 29.96R  
GAINESVILLE CLEAR 62 39 42 W8 29.97R  
CARTERSVILLE PTCLDY 61 45 55 CALM 29.97R  
 
 
CITY SKY/WX TMP DP RH WIND PRES REMARKS
 
DALTON* CLEAR 59 41 51 CALM 29.99R  
LAWRENCEVILLE* CLEAR 62 40 44 W3 29.96R  
MARIETTA PTCLDY 63 39 41 N5 29.96R  
KENNESAW* CLEAR 63 42 46 N8 29.97R  
CANTON* CLEAR 61 37 41 NW6 29.98R  
BLAIRSVILLE* CLEAR 56 39 53 NW5 29.99R  

 
 
GAZ059>098-102>109-200200-  
CENTRAL GEORGIA  
 
CITY SKY/WX TMP DP RH WIND PRES REMARKS
 
AUGUSTA-BUSH CLEAR 60 47 61 CALM 29.92R  
AUGUSTA-DANIEL CLEAR 70 39 32 N3 29.93R  
COLUMBUS CLEAR 66 41 40 CALM 29.94R  
MACON CLEAR 60 48 64 CALM 29.94R  
ROBINS AFB CLEAR 60 47 62 CALM 29.93R  
 
 
CITY SKY/WX TMP DP RH WIND PRES REMARKS
 
LAGRANGE* CLEAR 56 45 64 CALM 29.96R  
SYLVANIA* CLEAR 67 44 43 CALM 29.93R  

 
 
GAZ099>101-110>166-200200-  
SOUTH GEORGIA  
 
CITY SKY/WX TMP DP RH WIND PRES REMARKS
 
SAVANNAH CLEAR 63 44 50 CALM 29.93R  
VALDOSTA PTCLDY 60 48 64 CALM 29.93R  
ALMA CLEAR 59 46 62 CALM 29.93R  
ST SIMONS CLEAR 68 47 46 CALM 29.92R  
FT STEWART CLEAR 60 45 57 CALM 29.91R  
ALBANY CLEAR 64 46 52 CALM 29.96R  
HUNTER AFB CLEAR 64 40 42 CALM 29.90R  
MOODY AFB PTCLDY 64 46 52 CALM 29.93R  
BRUNSWICK CLEAR 60 45 59 CALM 29.93R  
 
 
CITY SKY/WX TMP DP RH WIND PRES REMARKS
 
BAINBRIDGE* CLEAR 67 47 48 N5 29.94R  
MOULTRIE* CLEAR 61 48 63 CALM 29.95R  
VIDALIA* CLEAR 64 45 48 CALM 29.94R  
WAYCROSS* CLEAR 63 45 51 CALM 29.94R  
DOUGLAS* CLEAR 63 42 47 CALM 29.95R  

 
 
 
CLICK HERE TO GO TO PREVIOUS BULLETINS.

The Nexlab GA Page Main Text Page